Regional Weather Roundup
Issued by NWS Kansas City/Pleasant Hill, MO

Home | Current Version | Previous Version | Graphics & Text | Print | Product List | Glossary Off
Versions: 1 2 3 4 5 6 7 8 9 10 11 12 13 14 15 16 17 18 19 20 21 22 23 24 25 26 27 28 29 30 31 32 33 34 35 36 37 38 39 40 41 42 43 44 45 46 47 48 49 50

000
ASUS43 KEAX 201910
RWREAX

WEATHER ROUNDUP FOR EASTERN KANSAS AND NORTHWEST MISSOURI
NATIONAL WEATHER SERVICE KANSAS CITY/PLEASANT HILL MO
100 PM CST SAT DEC 20 2014

KSZ040-057-103>105-MOZ028-029-037-043-202000-
...KANSAS CITY METROPOLITAN AREA...

CITY           SKY/WX    TMP DP  RH WIND       PRES   REMARKS
K.C. INTL      CLOUDY    43  38  82 SW13      30.11F
K.C. DOWNTOWN  PTSUNNY   46  37  71 S10       30.13F
LEES SUMMIT    CLOUDY    41  35  79 S9        30.14F
OLATHE - IXD   MOSUNNY   45  37  73 SW12      30.13F
OLATHE - OJC   PTSUNNY   44  37  76 SW13      30.13F
LAWRENCE       SUNNY     46  37  71 SW12      30.12F

$$

MOZ001>008-011>017-020>025-030>033-038>040-044>046-053-054-202000-
...NORTHERN AND CENTRAL MISSOURI...

CITY           SKY/WX    TMP DP  RH WIND       PRES   REMARKS
ST. JOSEPH     CLOUDY    40  35  83 SW8       30.12F WCI  34
MOSBY          CLOUDY    39  34  81 SE8       30.14F WCI  34
WARRENSBURG    CLOUDY    37  34  87 S7        30.17F WCI  32
WHITEMAN AFB   CLOUDY    39  35  86 SW8       30.17F WCI  33
CLINTON        CLOUDY    41  36  81 SW9       30.20F
SEDALIA        CLOUDY    40  35  83 SW9       30.19F WCI  34
WARSAW         NOT AVBL
MARSHALL       CLOUDY    41  37  87 SW8       30.19F
CHILLICOTHE      N/A     37  34  89 S8        30.17F WCI  31
MOBERLY        CLOUDY    39  36  87 S8        30.19F WCI  34
KIRKSVILLE     CLOUDY    38  35  89 S7        30.17F WCI  33

$$

MOZ041-047>049-056>058-063>065-088>090-097-202000-
...EASTERN AND SOUTHERN MISSOURI...

CITY           SKY/WX    TMP DP  RH WIND       PRES   REMARKS
ST. LOUIS INTL CLOUDY    42  32  67 SE3       30.23F
SPIRIT OF STL  CLOUDY    42  33  70 SE3       30.22F
COLUMBIA       CLOUDY    41  36  82 S7        30.19F
JEFFERSON CITY CLOUDY    42  35  76 S5        30.21F
MEXICO         CLOUDY   N/A N/A N/A S6        30.19F HAZE
HANNIBAL       CLOUDY    39  32  75 S5        30.20F HAZE
ROLLA          CLOUDY    40  34  79 S6        30.18F
LEBANON        CLOUDY    41  36  81 S6        30.19F
OSAGE BEACH    CLOUDY    43  34  70 SW7       30.19F
SPRINGFIELD    CLOUDY    41  36  82 SW7       30.18F
BRANSON        CLOUDY    41  39  93 CALM      30.21F FOG
NEVADA         CLOUDY    39  34  81 SW12      30.20F WCI  32
JOPLIN         CLOUDY    44  35  70 SW8       30.20F
WEST PLAINS    CLOUDY    42  36  79 NE3       30.20F

$$

IAZ060-094-KSZ022-034>040-054-083-096-NEZ052-066-093-202000-
...KANSAS...SOUTHEAST NEBRASKA AND IOWA...

CITY           SKY/WX    TMP DP  RH WIND       PRES   REMARKS
TOPEKA         SUNNY     48  38  68 SW10      30.11F
MANHATTAN      SUNNY     47  39  74 SW10      30.08F
EMPORIA        SUNNY     47  39  74 S17       30.12F
CHANUTE        MOSUNNY   46  36  68 S12       30.17F
WICHITA        PTSUNNY   48  36  63 S14       30.12F
OMAHA          CLOUDY    34  32  92 S10       30.09F FOG     WCI  26
LINCOLN        CLOUDY    33  31  92 CALM      30.08F FOG
FALLS CITY     CLOUDY    34  31  88 SW8       30.10F WCI  27
LAMONI         CLOUDY    34  33  96 S8        30.12F FOG     WCI  27
DES MOINES     CLOUDY    34  31  88 SE7       30.14F FOG     WCI  28

$$



USA.gov is the U.S. government's official web portal to all federal, state and local government web resources and services.